Reus, Spain

9:56 AM CET on December 14, 2017 (GMT +0100)
Reus Air Base

Weather History for LERS - October, 2013

Change the Weather History Date:

Monday, October 14, 2013

  Actual Average Record
Temperature  
Mean Temperature 68 °F -  
Max Temperature 80 °F 66 °F 80 °F (2013)
Min Temperature 55 °F 51 °F 46 °F (2000)
Cooling Degree Days 2    
Growing Degree Days 18 (Base 50)    
Moisture  
Dew Point 55 °F    
Average Humidity 65    
Maximum Humidity 94    
Minimum Humidity 30    
Precipitation  
Precipitation 0.00 in - - ()
Sea Level Pressure  
Sea Level Pressure 30.09 in    
Wind  
Wind Speed 4 mph ()    
Max Wind Speed 9 mph    
Max Gust Speed -    
Visibility 6.2 miles    
Events      
Averages and records for this station are not official NWS values.
T = Trace of Precipitation, MM = Missing Value Source: Averaged Metar Reports

Daily Weather History Graph

Daily Weather History Graph

Search for Another Location

Airport or City:

Trip Planner

Search our weather history database for the weather conditions in past years. The results will help you decide how hot, cold, wet, or windy it might be!

Date:

Astronomy

Oct. 14, 2013 Rise Set
Actual Time 8:05 AM CEST 7:16 PM CEST
Civil Twilight 7:38 AM CEST 7:43 PM CEST
Nautical Twilight 7:06 AM CEST 8:15 PM CEST
Astronomical Twilight 6:34 AM CEST 8:47 PM CEST
Moon 4:38 PM CEST 3:03 AM CEST
Length of Visible Light 12h 05m
Length of Day
11h 10m
Waxing Gibbous, 77% of the Moon is Illuminated
Oct 14
Waxing Gibbous
Oct 19
Full
Oct 27
Last Quarter
Nov 3
New
Nov 10
First Quarter

Hourly Weather History & Observations

Time (CEST) Temp. Dew Point Humidity Pressure Visibility Wind Dir Wind Speed Gust Speed Precip Events Conditions
12:00 AM 62.6 °F 60.8 °F 94% 30.12 in 6.2 mi Variable 2.3 mph - N/A   Partly Cloudy
7:00 AM 57.2 °F 53.6 °F 88% 30.06 in 6.2 mi NNE 9.2 mph - N/A   Partly Cloudy
7:30 AM 57.2 °F 53.6 °F 88% 30.09 in 6.2 mi NNE 6.9 mph - N/A   Partly Cloudy
8:00 AM 57.2 °F 51.8 °F 82% 30.09 in 6.2 mi North 4.6 mph - N/A   Partly Cloudy
8:30 AM 55.4 °F 51.8 °F 88% 30.09 in 6.2 mi NNE 3.5 mph - N/A   Partly Cloudy
9:00 AM 57.2 °F 53.6 °F 88% 30.09 in 6.2 mi Variable 2.3 mph - N/A   Partly Cloudy
9:30 AM 59.0 °F 53.6 °F 82% 30.09 in 6.2 mi NE 3.5 mph - N/A   Partly Cloudy
10:00 AM 64.4 °F 55.4 °F 73% 30.12 in - Variable 1.2 mph - N/A   Clear
10:30 AM 66.2 °F 55.4 °F 68% 30.12 in - Variable 1.2 mph - N/A   Clear
11:00 AM 69.8 °F 53.6 °F 56% 30.12 in - Variable 2.3 mph - N/A   Clear
11:30 AM 71.6 °F 53.6 °F 53% 30.12 in - Variable 1.2 mph - N/A   Clear
12:00 PM 75.2 °F 53.6 °F 47% 30.12 in - Variable 2.3 mph - N/A   Clear
12:30 PM 75.2 °F 46.4 °F 36% 30.09 in - WSW 5.8 mph - N/A   Clear
1:00 PM 75.2 °F 46.4 °F 36% 30.09 in - WSW 5.8 mph - N/A   Clear
1:30 PM 77.0 °F 48.2 °F 36% 30.09 in - WSW 6.9 mph - N/A   Clear
2:00 PM 77.0 °F 48.2 °F 36% 30.09 in - SW 6.9 mph - N/A   Clear
2:30 PM 77.0 °F 46.4 °F 34% 30.09 in - Variable 4.6 mph - N/A   Clear
3:00 PM 78.8 °F 48.2 °F 34% 30.06 in 6.2 mi Variable 2.3 mph - N/A   Partly Cloudy
3:30 PM 80.6 °F 46.4 °F 30% 30.06 in 6.2 mi SSW 5.8 mph - N/A   Partly Cloudy
4:00 PM 77.0 °F 55.4 °F 47% 30.06 in 6.2 mi South 8.1 mph - N/A   Partly Cloudy
4:30 PM 73.4 °F 59.0 °F 61% 30.06 in 6.2 mi SSE 8.1 mph - N/A   Partly Cloudy
5:00 PM 75.2 °F 57.2 °F 53% 30.06 in 6.2 mi South 5.8 mph - N/A   Partly Cloudy
5:30 PM 73.4 °F 57.2 °F 57% 30.06 in 6.2 mi SSW 5.8 mph - N/A   Partly Cloudy
6:00 PM 73.4 °F 55.4 °F 53% 30.06 in 6.2 mi SSW 6.9 mph - N/A   Partly Cloudy
6:30 PM 71.6 °F 60.8 °F 69% 30.06 in 6.2 mi SW 8.1 mph - N/A   Partly Cloudy
7:00 PM 69.8 °F 59.0 °F 68% 30.06 in 6.2 mi Variable 2.3 mph - N/A   Partly Cloudy
7:30 PM 68.0 °F 59.0 °F 73% 30.09 in 6.2 mi SW 4.6 mph - N/A   Partly Cloudy
8:00 PM 68.0 °F 59.0 °F 73% 30.09 in - SW 3.5 mph - N/A   Clear
8:30 PM 66.2 °F 59.0 °F 78% 30.09 in - Variable 1.2 mph - N/A   Clear
9:00 PM 68.0 °F 60.8 °F 78% 30.09 in - Variable 1.2 mph - N/A   Clear
9:30 PM 66.2 °F 60.8 °F 83% 30.09 in - Calm Calm - N/A   Clear
10:00 PM 64.4 °F 60.8 °F 88% 30.09 in - Calm Calm - N/A   Clear
10:30 PM 66.2 °F 59.0 °F 78% 30.12 in - North 4.6 mph - N/A   Clear
11:00 PM 66.2 °F 59.0 °F 78% 30.12 in - North 5.8 mph - N/A   Clear
11:30 PM 66.2 °F 59.0 °F 78% 30.12 in - Variable 2.3 mph - N/A   Clear